Home > Weather > Cruzeiro do Sul > Past weeks

Flag for Brazil Past Weather in Cruzeiro do Sul, Acre, Brazil — Yesterday and Last 2 Weeks

Now
84 °F

Passing clouds.


Feels Like: 87 °F
Forecast: 67 / 89 °F
Wind: 7 mph from East

Location: Cruzeiro Do Sul Airport

Current Time: Jun 29, 2016 at 5:02:07 PM

Latest Report: Jun 29, 2016 at 4:00 PM


Visibility: N/A

Pressure: 29.95 "Hg

Humidity: 58%

Dew Point: 68 °F

Location of Cruzeiro do SulLocation

Past Weather in Cruzeiro do Sul — Graph

°F

Cruzeiro do Sul Temperature Yesterday

Maximum temperature yesterday: 86 °F (at 2:00 PM)
Minimum temperature yesterday: 73 °F (at 12:00 AM)
Average temperature yesterday: 79 °F

High & Low Weather Summary for the Past Weeks

 TemperatureHumidityPressure
High90 °F (Jun 16, 1:00 PM)100% (Jun 14, 10:00 PM)30.12 "Hg (Jun 14, 10:00 PM)
Low66 °F (Jun 15, 1:45 AM)46% (Jun 16, 2:00 PM)29.86 "Hg (Jun 24, 4:00 PM)
Average78 °F79%29.99 "Hg
* Reported Jun 14 4:00 PM — Jun 29 4:00 PM, Cruzeiro do Sul, Weather by CustomWeather, © 2016

Note: Actual official high and low records may vary slightly from our data, if they occured in-between our weather recording intervals... More about our weather records

Advertising

Cruzeiro do Sul Weather History for the Previous 24 Hours

Scroll right to see more
 ConditionsComfort  
Time TempWeatherWind HumidityBarometerVisibility
4:00 PM
Wed, Jun 29
84 °FPassing clouds.7 mph58%29.95 "HgN/A
3:00 PM84 °FScattered clouds.9 mph62%29.95 "HgN/A
2:00 PM86 °FPartly sunny.8 mph59%29.98 "HgN/A
1:00 PM86 °FPartly sunny.8 mph59%30.01 "HgN/A
12:00 PM82 °FPartly sunny.6 mph62%30.01 "HgN/A
11:00 AM81 °FPartly sunny.5 mph66%30.04 "HgN/A
10:00 AM81 °FScattered clouds.No wind70%30.04 "HgN/A
9:00 AM75 °FScattered clouds.6 mph78%30.07 "HgN/A
1:45 AM70 °FClear.No wind94%30.01 "Hg10 mi
1:00 AM70 °FPassing clouds.1 mph100%30.01 "HgN/A
12:00 AM72 °FPassing clouds.2 mph94%30.04 "HgN/A
11:00 PM
Tue, Jun 28
73 °FPassing clouds.2 mph94%30.04 "HgN/A
10:00 PM73 °FClear.2 mph94%30.04 "Hg10 mi
9:00 PM75 °FClear.2 mph94%30.01 "Hg10 mi
8:00 PM75 °FClear.2 mph94%30.01 "Hg10 mi
7:00 PM77 °FClear.2 mph89%29.98 "Hg10 mi
6:00 PM79 °FPassing clouds.2 mph84%29.98 "HgN/A
5:00 PM82 °FPartly sunny.3 mph70%29.95 "HgN/A
Weather by CustomWeather, © 2016

See weather overviewHow to use our weather pages